,,PA_Meas_PMT16A,,PR_Meas_QMR101_102,,RH_Meas_QMH101,,SR_Meas_QMS101,,TA_Meas_QMH101,,GenWind,,GenWind,
time,status,PA,status,PR,status,RH,status,SR,status,TA,status,DirAvg,status,SpdAvg,
2010-05-04, 00:00:04,VALID,916.279,VALID,0,VALID,97.4196,VALID,0,VALID,21.4388,VALID,321,VALID,0.128906,
2010-05-04, 00:01:04,VALID,916.249,VALID,0,VALID,97.412,VALID,0,VALID,21.4388,VALID,321,VALID,0,
2010-05-04, 00:02:04,VALID,916.288,VALID,0,VALID,97.4196,VALID,0,VALID,21.4567,VALID,321,VALID,0.291406,
2010-05-04, 00:03:04,VALID,916.284,VALID,0,VALID,97.4273,VALID,0,VALID,21.4567,VALID,321,VALID,0.471875,
2010-05-04, 00:04:04,VALID,916.288,VALID,0,VALID,97.4349,VALID,0,VALID,21.4778,VALID,321,VALID,0.404687,
2010-05-04, 00:05:04,VALID,916.267,VALID,0,VALID,97.412,VALID,0,VALID,21.4567,VALID,321,VALID,0.448438,
2010-05-04, 00:06:04,VALID,916.256,VALID,0,VALID,97.4196,VALID,0,VALID,21.4973,VALID,321,VALID,0.721875,
2010-05-04, 00:07:04,VALID,916.229,VALID,0,VALID,97.412,VALID,0,VALID,21.4973,VALID,321,VALID,0.241406,
2010-05-04, 00:08:04,VALID,916.205,VALID,0,VALID,97.4196,VALID,0,VALID,21.4762,VALID,321,VALID,0.00703125,
2010-05-04, 00:09:04,VALID,916.202,VALID,0,VALID,97.4196,VALID,0,VALID,21.4957,VALID,321,VALID,0,
2010-05-04, 00:10:04,VALID,916.197,VALID,0,VALID,97.4349,VALID,0,VALID,21.5168,VALID,321,VALID,0,
2010-05-04, 00:11:04,VALID,916.19,VALID,0,VALID,97.4273,VALID,0,VALID,21.4973,VALID,321,VALID,0.260938,
2010-05-04, 00:12:04,VALID,916.174,VALID,0,VALID,97.4196,VALID,0,VALID,21.4957,VALID,321,VALID,0.489062,
2010-05-04, 00:13:04,VALID,916.125,VALID,0,VALID,97.4196,VALID,0,VALID,21.5152,VALID,321,VALID,0.360156,
2010-05-04, 00:14:04,VALID,916.134,VALID,0,VALID,97.4349,VALID,0,VALID,21.5559,VALID,321,VALID,0.733203,
2010-05-04, 00:15:04,VALID,916.115,VALID,0,VALID,97.4196,VALID,0,VALID,21.4973,VALID,321,VALID,0.5375,
2010-05-04, 00:16:04,VALID,916.139,VALID,0,VALID,97.4196,VALID,0,VALID,21.4957,VALID,321,VALID,0.594531,
2010-05-04, 00:17:04,VALID,916.152,VALID,0,VALID,97.4273,VALID,0,VALID,21.5559,VALID,321,VALID,0.425781,
2010-05-04, 00:18:04,VALID,916.146,VALID,0,VALID,97.4273,VALID,0,VALID,21.5168,VALID,321,VALID,0.322656,
2010-05-04, 00:19:04,VALID,916.142,VALID,0,VALID,97.4273,VALID,0,VALID,21.4957,VALID,321,VALID,0.260547,
2010-05-04, 00:20:04,VALID,916.13,VALID,0,VALID,97.412,VALID,0.107441,VALID,21.5168,VALID,321,VALID,0.188672,
2010-05-04, 00:21:04,VALID,916.183,VALID,0,VALID,97.4196,VALID,0,VALID,21.4567,VALID,321,VALID,0,
2010-05-04, 00:22:04,VALID,916.166,VALID,0,VALID,97.4196,VALID,0,VALID,21.4762,VALID,321,VALID,0.00117188,
2010-05-04, 00:23:04,VALID,916.18,VALID,0,VALID,97.4273,VALID,0,VALID,21.5168,VALID,321,VALID,0.317578,
2010-05-04, 00:24:04,VALID,916.156,VALID,0,VALID,97.4349,VALID,0,VALID,21.5168,VALID,321,VALID,0.45,
2010-05-04, 00:25:04,VALID,916.2,VALID,0,VALID,97.4196,VALID,0,VALID,21.4957,VALID,321,VALID,0.506641,
2010-05-04, 00:26:04,VALID,916.169,VALID,0,VALID,97.4196,VALID,0,VALID,21.4762,VALID,321,VALID,0.916016,
2010-05-04, 00:27:04,VALID,916.181,VALID,0,VALID,97.412,VALID,0,VALID,21.4372,VALID,321,VALID,0.987109,
2010-05-04, 00:28:04,VALID,916.143,VALID,0,VALID,97.4196,VALID,0,VALID,21.4372,VALID,321,VALID,1.20234,
2010-05-04, 00:29:04,VALID,916.118,VALID,0,VALID,97.4044,VALID,0,VALID,21.4177,VALID,28,VALID,0.958594,
2010-05-04, 00:30:04,VALID,916.111,VALID,0,VALID,97.4196,VALID,0,VALID,21.4193,VALID,65,VALID,1.18906,
2010-05-04, 00:31:04,VALID,916.099,VALID,0,VALID,97.4196,VALID,0,VALID,21.4193,VALID,358,VALID,0.635938,
2010-05-04, 00:32:04,VALID,916.075,VALID,0,VALID,97.412,VALID,0,VALID,21.3998,VALID,358,VALID,0.765234,
2010-05-04, 00:33:04,VALID,916.049,VALID,0,VALID,97.412,VALID,0,VALID,21.3786,VALID,358,VALID,0.74375,
2010-05-04, 00:34:04,VALID,916.052,VALID,0,VALID,97.4349,VALID,0,VALID,21.3608,VALID,358,VALID,0.564062,
2010-05-04, 00:35:04,VALID,916.028,VALID,0,VALID,97.4425,VALID,0,VALID,21.3396,VALID,358,VALID,0.387109,
2010-05-04, 00:36:04,VALID,915.999,VALID,0,VALID,97.4196,VALID,0.107441,VALID,21.3396,VALID,358,VALID,1.09297,
2010-05-04, 00:37:04,VALID,916,VALID,0,VALID,97.4425,VALID,0,VALID,21.3217,VALID,358,VALID,1.03828,
2010-05-04, 00:38:04,VALID,915.973,VALID,0,VALID,97.4501,VALID,0,VALID,21.3006,VALID,358,VALID,0.552344,
2010-05-04, 00:39:04,VALID,915.985,VALID,0,VALID,97.4273,VALID,0,VALID,21.3217,VALID,358,VALID,0.90625,
2010-05-04, 00:40:04,VALID,915.986,VALID,0,VALID,97.4349,VALID,0,VALID,21.2811,VALID,358,VALID,0.667578,
2010-05-04, 00:41:04,VALID,915.979,VALID,0,VALID,97.4349,VALID,0,VALID,21.3006,VALID,347,VALID,1.04023,
2010-05-04, 00:42:04,VALID,915.968,VALID,0,VALID,97.4425,VALID,0,VALID,21.2811,VALID,344,VALID,0.658203,
2010-05-04, 00:43:04,VALID,915.975,VALID,0,VALID,97.4425,VALID,0,VALID,21.3412,VALID,344,VALID,0.851172,
2010-05-04, 00:44:04,VALID,916,VALID,0,VALID,97.4501,VALID,0,VALID,21.3412,VALID,344,VALID,0.521484,
2010-05-04, 00:45:04,VALID,916.027,VALID,0,VALID,97.4501,VALID,0,VALID,21.3201,VALID,344,VALID,0.832422,
2010-05-04, 00:46:04,VALID,916.012,VALID,0,VALID,97.4654,VALID,0,VALID,21.2811,VALID,344,VALID,1.28672,
2010-05-04, 00:47:04,VALID,916.017,VALID,0,VALID,97.4501,VALID,0,VALID,21.3006,VALID,344,VALID,0.889453,
2010-05-04, 00:48:04,VALID,915.998,VALID,0,VALID,97.4577,VALID,0,VALID,21.3006,VALID,344,VALID,0.795703,
2010-05-04, 00:49:04,VALID,916,VALID,0,VALID,97.4577,VALID,0,VALID,21.3006,VALID,344,VALID,0.848437,
2010-05-04, 00:50:04,VALID,915.965,VALID,0,VALID,97.4577,VALID,0,VALID,21.3217,VALID,344,VALID,0.552344,
2010-05-04, 00:51:04,VALID,915.946,VALID,0,VALID,97.4425,VALID,0,VALID,21.3608,VALID,344,VALID,0.503516,
2010-05-04, 00:52:04,VALID,915.934,VALID,0,VALID,97.4425,VALID,0,VALID,21.3412,VALID,344,VALID,0.661719,
2010-05-04, 00:53:04,VALID,915.951,VALID,0,VALID,97.473,VALID,0,VALID,21.3608,VALID,344,VALID,0.810938,
2010-05-04, 00:54:04,VALID,915.942,VALID,0,VALID,97.4425,VALID,0,VALID,21.3803,VALID,344,VALID,0.717578,
2010-05-04, 00:55:04,VALID,915.953,VALID,0,VALID,97.4425,VALID,0,VALID,21.3608,VALID,344,VALID,0.846484,
2010-05-04, 00:56:04,VALID,915.959,VALID,0,VALID,97.4654,VALID,0,VALID,21.3201,VALID,344,VALID,0.824609,
2010-05-04, 00:57:04,VALID,915.951,VALID,0,VALID,97.4501,VALID,0,VALID,21.2811,VALID,344,VALID,0.342969,
2010-05-04, 00:58:04,VALID,915.959,VALID,0,VALID,97.4577,VALID,0,VALID,21.3412,VALID,344,VALID,0.413672,
2010-05-04, 00:59:04,VALID,915.935,VALID,0,VALID,97.4349,VALID,0,VALID,21.3396,VALID,344,VALID,0.549219,
2010-05-04, 01:00:04,VALID,915.929,VALID,0,VALID,97.4654,VALID,0,VALID,21.3201,VALID,344,VALID,0.507031,
2010-05-04, 01:01:04,VALID,915.928,VALID,0,VALID,97.4425,VALID,0,VALID,21.3217,VALID,344,VALID,0,
2010-05-04, 01:02:04,VALID,915.933,VALID,0,VALID,97.4577,VALID,0,VALID,21.3412,VALID,344,VALID,0,
2010-05-04, 01:03:04,VALID,915.958,VALID,0,VALID,97.4654,VALID,0,VALID,21.3396,VALID,344,VALID,0,
2010-05-04, 01:04:04,VALID,915.951,VALID,0,VALID,97.4806,VALID,0,VALID,21.3608,VALID,344,VALID,0.412891,
2010-05-04, 01:05:04,VALID,915.968,VALID,0,VALID,97.4501,VALID,0,VALID,21.3412,VALID,344,VALID,0.640234,
2010-05-04, 01:06:04,VALID,915.945,VALID,0,VALID,97.4577,VALID,0,VALID,21.3006,VALID,344,VALID,0.407813,
2010-05-04, 01:07:04,VALID,915.931,VALID,0,VALID,97.4501,VALID,0,VALID,21.3201,VALID,344,VALID,0.375,
2010-05-04, 01:08:04,VALID,915.876,VALID,0,VALID,97.4425,VALID,0,VALID,21.2811,VALID,344,VALID,0.0945313,
2010-05-04, 01:09:04,VALID,915.867,VALID,0,VALID,97.473,VALID,0,VALID,21.3022,VALID,344,VALID,0,
2010-05-04, 01:10:04,VALID,915.849,VALID,0,VALID,97.473,VALID,0,VALID,21.2811,VALID,344,VALID,0,
2010-05-04, 01:11:04,VALID,915.853,VALID,0,VALID,97.4654,VALID,0,VALID,21.2811,VALID,344,VALID,0,
2010-05-04, 01:12:04,VALID,915.801,VALID,0,VALID,97.4501,VALID,0,VALID,21.2811,VALID,344,VALID,0,
2010-05-04, 01:13:04,VALID,915.767,VALID,0,VALID,97.4577,VALID,0.107441,VALID,21.2827,VALID,344,VALID,0.26875,
2010-05-04, 01:14:04,VALID,915.771,VALID,0,VALID,97.4654,VALID,0,VALID,21.3022,VALID,344,VALID,0.433594,
2010-05-04, 01:15:04,VALID,915.755,VALID,0,VALID,97.473,VALID,0.107441,VALID,21.3217,VALID,344,VALID,0.513672,
2010-05-04, 01:16:04,VALID,915.749,VALID,0,VALID,97.4501,VALID,0,VALID,21.3006,VALID,344,VALID,0.650781,
2010-05-04, 01:17:04,VALID,915.729,VALID,0,VALID,97.473,VALID,0,VALID,21.3006,VALID,344,VALID,0.553125,
2010-05-04, 01:18:04,VALID,915.708,VALID,0,VALID,97.473,VALID,0,VALID,21.2811,VALID,344,VALID,0.461328,
2010-05-04, 01:19:04,VALID,915.724,VALID,0,VALID,97.473,VALID,0,VALID,21.2811,VALID,344,VALID,0.551953,
2010-05-04, 01:20:04,VALID,915.683,VALID,0,VALID,97.4577,VALID,0,VALID,21.2827,VALID,344,VALID,0.452344,
2010-05-04, 01:21:04,VALID,915.644,VALID,0,VALID,97.4806,VALID,0,VALID,21.2226,VALID,344,VALID,0.567969,
2010-05-04, 01:22:04,VALID,915.634,VALID,0,VALID,97.4577,VALID,0,VALID,21.2031,VALID,344,VALID,0.609375,
2010-05-04, 01:23:04,VALID,915.633,VALID,0,VALID,97.473,VALID,0.107441,VALID,21.2242,VALID,344,VALID,0.510156,
2010-05-04, 01:24:04,VALID,915.641,VALID,0,VALID,97.4882,VALID,0,VALID,21.2437,VALID,344,VALID,0.515234,
2010-05-04, 01:25:04,VALID,915.605,VALID,0,VALID,97.4654,VALID,0,VALID,21.2437,VALID,343,VALID,0.616797,
2010-05-04, 01:26:04,VALID,915.642,VALID,0,VALID,97.473,VALID,0,VALID,21.2242,VALID,343,VALID,0.616016,
2010-05-04, 01:27:04,VALID,915.647,VALID,0,VALID,97.4959,VALID,0,VALID,21.2226,VALID,343,VALID,0.274609,
2010-05-04, 01:28:04,VALID,915.648,VALID,0,VALID,97.4806,VALID,0,VALID,21.2421,VALID,343,VALID,0,
2010-05-04, 01:29:04,VALID,915.641,VALID,0,VALID,97.4806,VALID,0,VALID,21.2632,VALID,343,VALID,0,
2010-05-04, 01:30:04,VALID,915.635,VALID,0,VALID,97.4882,VALID,0,VALID,21.2827,VALID,343,VALID,0.00429688,
2010-05-04, 01:31:04,VALID,915.667,VALID,0,VALID,97.473,VALID,0,VALID,21.2421,VALID,343,VALID,0,
2010-05-04, 01:32:04,VALID,915.656,VALID,0,VALID,97.473,VALID,0,VALID,21.2616,VALID,343,VALID,0.0167969,
2010-05-04, 01:33:04,VALID,915.683,VALID,0,VALID,97.473,VALID,0,VALID,21.2632,VALID,343,VALID,0.0367187,
2010-05-04, 01:34:04,VALID,915.695,VALID,0,VALID,97.4959,VALID,0,VALID,21.2632,VALID,343,VALID,0.272656,
2010-05-04, 01:35:04,VALID,915.664,VALID,0,VALID,97.4882,VALID,0,VALID,21.2242,VALID,343,VALID,0.455859,
2010-05-04, 01:36:04,VALID,915.7,VALID,0,VALID,97.4882,VALID,0,VALID,21.2047,VALID,343,VALID,0.626562,
2010-05-04, 01:37:04,VALID,915.67,VALID,0,VALID,97.4959,VALID,0,VALID,21.2047,VALID,343,VALID,0.740234,
2010-05-04, 01:38:04,VALID,915.679,VALID,0,VALID,97.4882,VALID,0,VALID,21.164,VALID,343,VALID,0.222266,
2010-05-04, 01:39:04,VALID,915.67,VALID,0,VALID,97.4882,VALID,0,VALID,21.2242,VALID,343,VALID,0.0382813,
2010-05-04, 01:40:04,VALID,915.693,VALID,0,VALID,97.4959,VALID,0,VALID,21.2031,VALID,343,VALID,0.075,
2010-05-04, 01:41:04,VALID,915.701,VALID,0,VALID,97.4654,VALID,0,VALID,21.2242,VALID,343,VALID,0.00195313,
2010-05-04, 01:42:04,VALID,915.706,VALID,0,VALID,97.5035,VALID,0,VALID,21.2031,VALID,343,VALID,0.108984,
2010-05-04, 01:43:04,VALID,915.711,VALID,0,VALID,97.4882,VALID,0,VALID,21.2031,VALID,343,VALID,0.189844,
2010-05-04, 01:44:04,VALID,915.747,VALID,0,VALID,97.473,VALID,0,VALID,21.2047,VALID,343,VALID,0.453906,
2010-05-04, 01:45:04,VALID,915.753,VALID,0,VALID,97.4959,VALID,0,VALID,21.1836,VALID,343,VALID,0.566797,
2010-05-04, 01:46:04,VALID,915.772,VALID,0,VALID,97.4959,VALID,0,VALID,21.2047,VALID,343,VALID,0.43125,
2010-05-04, 01:47:04,VALID,915.808,VALID,0,VALID,97.5111,VALID,0,VALID,21.164,VALID,343,VALID,0.494922,
2010-05-04, 01:48:04,VALID,915.805,VALID,0,VALID,97.473,VALID,0,VALID,21.1657,VALID,343,VALID,0.205859,
2010-05-04, 01:49:04,VALID,915.793,VALID,0,VALID,97.4959,VALID,0,VALID,21.1657,VALID,343,VALID,0.396484,
2010-05-04, 01:50:04,VALID,915.797,VALID,0,VALID,97.5035,VALID,0,VALID,21.1852,VALID,343,VALID,0.0179687,
2010-05-04, 01:51:04,VALID,915.785,VALID,0,VALID,97.4806,VALID,0,VALID,21.164,VALID,343,VALID,0.0726563,
2010-05-04, 01:52:04,VALID,915.78,VALID,0,VALID,97.5187,VALID,0,VALID,21.1852,VALID,343,VALID,0.159766,
2010-05-04, 01:53:04,VALID,915.782,VALID,0,VALID,97.5111,VALID,0,VALID,21.1852,VALID,343,VALID,0.348828,
2010-05-04, 01:54:04,VALID,915.791,VALID,0,VALID,97.5111,VALID,0,VALID,21.1852,VALID,343,VALID,0.0863281,
2010-05-04, 01:55:04,VALID,915.795,VALID,0,VALID,97.4959,VALID,0,VALID,21.1852,VALID,343,VALID,0,
2010-05-04, 01:56:04,VALID,915.774,VALID,0,VALID,97.5035,VALID,0,VALID,21.2047,VALID,343,VALID,0,
2010-05-04, 01:57:04,VALID,915.769,VALID,0,VALID,97.4959,VALID,0,VALID,21.2047,VALID,343,VALID,0,
2010-05-04, 01:58:04,VALID,915.778,VALID,0,VALID,97.4959,VALID,0,VALID,21.2242,VALID,343,VALID,0,
2010-05-04, 01:59:04,VALID,915.797,VALID,0,VALID,97.4882,VALID,0,VALID,21.2437,VALID,343,VALID,0,
2010-05-04, 02:00:04,VALID,915.791,VALID,0,VALID,97.4959,VALID,0,VALID,21.2827,VALID,343,VALID,0,
2010-05-04, 02:01:04,VALID,915.762,VALID,0,VALID,97.4959,VALID,0,VALID,21.2616,VALID,343,VALID,0,
2010-05-04, 02:02:04,VALID,915.728,VALID,0,VALID,97.5111,VALID,0,VALID,21.26,VALID,343,VALID,0,
2010-05-04, 02:03:04,VALID,915.7,VALID,0,VALID,97.4959,VALID,0,VALID,21.2811,VALID,343,VALID,0,
2010-05-04, 02:04:04,VALID,915.691,VALID,0,VALID,97.5035,VALID,0,VALID,21.3201,VALID,343,VALID,0.00585938,
2010-05-04, 02:05:04,VALID,915.646,VALID,0,VALID,97.4882,VALID,0,VALID,21.299,VALID,343,VALID,0,
2010-05-04, 02:06:04,VALID,915.624,VALID,0,VALID,97.4882,VALID,0,VALID,21.3201,VALID,343,VALID,0,
2010-05-04, 02:07:04,VALID,915.598,VALID,0,VALID,97.4882,VALID,0,VALID,21.3006,VALID,343,VALID,0,
2010-05-04, 02:08:04,VALID,915.59,VALID,0,VALID,97.4959,VALID,0,VALID,21.2811,VALID,343,VALID,0,
2010-05-04, 02:09:04,VALID,915.57,VALID,0,VALID,97.4882,VALID,0,VALID,21.2421,VALID,343,VALID,0,
2010-05-04, 02:10:04,VALID,915.6,VALID,0,VALID,97.4959,VALID,0,VALID,21.2226,VALID,343,VALID,0,
2010-05-04, 02:11:04,VALID,915.587,VALID,0,VALID,97.5111,VALID,0,VALID,21.2226,VALID,343,VALID,0,
2010-05-04, 02:12:04,VALID,915.607,VALID,0,VALID,97.4959,VALID,0,VALID,21.2226,VALID,343,VALID,0,
2010-05-04, 02:13:04,VALID,915.604,VALID,0,VALID,97.4959,VALID,0,VALID,21.2421,VALID,343,VALID,0,
2010-05-04, 02:14:04,VALID,915.58,VALID,0,VALID,97.5035,VALID,0.107441,VALID,21.2616,VALID,343,VALID,0,
2010-05-04, 02:15:04,VALID,915.613,VALID,0,VALID,97.4806,VALID,0,VALID,21.2632,VALID,343,VALID,0,
2010-05-04, 02:16:04,VALID,915.585,VALID,0,VALID,97.5035,VALID,0,VALID,21.2437,VALID,343,VALID,0,
2010-05-04, 02:17:04,VALID,915.563,VALID,0,VALID,97.4882,VALID,0,VALID,21.2437,VALID,343,VALID,0,
2010-05-04, 02:18:04,VALID,915.553,VALID,0,VALID,97.4806,VALID,0,VALID,21.2632,VALID,343,VALID,0.294141,
2010-05-04, 02:19:04,VALID,915.518,VALID,0,VALID,97.5111,VALID,0,VALID,21.2421,VALID,343,VALID,0.208594,
2010-05-04, 02:20:04,VALID,915.517,VALID,0,VALID,97.4882,VALID,0,VALID,21.2827,VALID,343,VALID,0.2,
2010-05-04, 02:21:04,VALID,915.474,VALID,0,VALID,97.4959,VALID,0,VALID,21.2421,VALID,343,VALID,0,
2010-05-04, 02:22:04,VALID,915.466,VALID,0,VALID,97.4959,VALID,0,VALID,21.2632,VALID,343,VALID,0,
2010-05-04, 02:23:04,VALID,915.424,VALID,0,VALID,97.5187,VALID,0,VALID,21.2632,VALID,343,VALID,0,
2010-05-04, 02:24:04,VALID,915.414,VALID,0,VALID,97.4882,VALID,0,VALID,21.2827,VALID,343,VALID,0.0867188,
2010-05-04, 02:25:04,VALID,915.412,VALID,0,VALID,97.4882,VALID,0,VALID,21.2827,VALID,343,VALID,0,
2010-05-04, 02:26:04,VALID,915.409,VALID,0,VALID,97.4959,VALID,0,VALID,21.3022,VALID,343,VALID,0.1625,
2010-05-04, 02:27:04,VALID,915.373,VALID,0,VALID,97.4959,VALID,0,VALID,21.3022,VALID,343,VALID,0,
2010-05-04, 02:28:04,VALID,915.369,VALID,0,VALID,97.4959,VALID,0,VALID,21.2827,VALID,343,VALID,0,
2010-05-04, 02:29:04,VALID,915.34,VALID,0,VALID,97.4806,VALID,0,VALID,21.2437,VALID,343,VALID,0.0851562,
2010-05-04, 02:30:04,VALID,915.307,VALID,0,VALID,97.5035,VALID,0,VALID,21.2437,VALID,343,VALID,0.477344,
2010-05-04, 02:31:04,VALID,915.3,VALID,0,VALID,97.5035,VALID,0,VALID,21.2437,VALID,343,VALID,0.348047,
2010-05-04, 02:32:04,VALID,915.26,VALID,0,VALID,97.4959,VALID,0,VALID,21.2437,VALID,343,VALID,0.246484,
2010-05-04, 02:33:04,VALID,915.252,VALID,0,VALID,97.5035,VALID,0,VALID,21.2437,VALID,343,VALID,0,
2010-05-04, 02:34:04,VALID,915.232,VALID,0,VALID,97.5111,VALID,0,VALID,21.2632,VALID,343,VALID,0,
2010-05-04, 02:35:04,VALID,915.214,VALID,0,VALID,97.4959,VALID,0,VALID,21.2827,VALID,343,VALID,0,
2010-05-04, 02:36:04,VALID,915.204,VALID,0,VALID,97.5035,VALID,0,VALID,21.2827,VALID,343,VALID,0,
2010-05-04, 02:37:04,VALID,915.201,VALID,0,VALID,97.4959,VALID,0,VALID,21.3022,VALID,343,VALID,0,
2010-05-04, 02:38:05,VALID,915.157,VALID,0,VALID,97.4959,VALID,0,VALID,21.2632,VALID,343,VALID,0.104297,
2010-05-04, 02:39:05,VALID,915.158,VALID,0,VALID,97.4806,VALID,0,VALID,21.2242,VALID,343,VALID,0.278516,
2010-05-04, 02:40:05,VALID,915.118,VALID,0,VALID,97.5111,VALID,0,VALID,21.2047,VALID,343,VALID,0.511719,
2010-05-04, 02:41:05,VALID,915.099,VALID,0,VALID,97.5111,VALID,0,VALID,21.1852,VALID,343,VALID,0.640625,
2010-05-04, 02:42:05,VALID,915.06,VALID,0,VALID,97.5111,VALID,0,VALID,21.1461,VALID,343,VALID,0.630469,
2010-05-04, 02:43:05,VALID,915.006,VALID,0,VALID,97.5035,VALID,0,VALID,21.1461,VALID,343,VALID,0.537109,
2010-05-04, 02:44:05,VALID,914.966,VALID,0,VALID,97.5187,VALID,0,VALID,21.1461,VALID,343,VALID,0.566016,
2010-05-04, 02:45:05,VALID,914.92,VALID,0,VALID,97.5111,VALID,0,VALID,21.1266,VALID,343,VALID,0.422266,
2010-05-04, 02:46:05,VALID,914.909,VALID,0,VALID,97.5035,VALID,0,VALID,21.1266,VALID,343,VALID,0.364453,
2010-05-04, 02:47:05,VALID,914.859,VALID,0,VALID,97.5416,VALID,0,VALID,21.1071,VALID,343,VALID,0.549609,
2010-05-04, 02:48:05,VALID,914.842,VALID,0,VALID,97.5187,VALID,0,VALID,21.1071,VALID,343,VALID,0.564062,
2010-05-04, 02:49:05,VALID,914.842,VALID,0,VALID,97.5264,VALID,0,VALID,21.1266,VALID,343,VALID,0.641797,
2010-05-04, 02:50:05,VALID,914.812,VALID,0,VALID,97.5264,VALID,0,VALID,21.1071,VALID,343,VALID,0.386719,
2010-05-04, 02:51:05,VALID,914.84,VALID,0,VALID,97.5264,VALID,0,VALID,21.1282,VALID,343,VALID,0.478125,
2010-05-04, 02:52:05,VALID,914.823,VALID,0,VALID,97.5264,VALID,0,VALID,21.1055,VALID,343,VALID,0.717969,
2010-05-04, 02:53:05,VALID,914.798,VALID,0,VALID,97.534,VALID,0,VALID,21.1071,VALID,343,VALID,0.573828,
2010-05-04, 02:54:05,VALID,914.832,VALID,0,VALID,97.5264,VALID,0,VALID,21.1266,VALID,343,VALID,0.578906,
2010-05-04, 02:55:05,VALID,914.829,VALID,0,VALID,97.5492,VALID,0,VALID,21.1266,VALID,343,VALID,0.600391,
2010-05-04, 02:56:05,VALID,914.798,VALID,0,VALID,97.5264,VALID,0,VALID,21.1461,VALID,343,VALID,0.430078,
2010-05-04, 02:57:05,VALID,914.798,VALID,0,VALID,97.534,VALID,0,VALID,21.1461,VALID,343,VALID,0.326953,
2010-05-04, 02:58:05,VALID,914.811,VALID,0,VALID,97.5264,VALID,0,VALID,21.1461,VALID,343,VALID,0.418359,
2010-05-04, 02:59:05,VALID,914.781,VALID,0,VALID,97.5111,VALID,0,VALID,21.1852,VALID,343,VALID,0.158203,
2010-05-04, 03:00:05,VALID,914.808,VALID,0,VALID,97.534,VALID,0,VALID,21.1657,VALID,343,VALID,0.541016,
2010-05-04, 03:01:05,VALID,914.824,VALID,0,VALID,97.5264,VALID,0,VALID,21.1657,VALID,343,VALID,0.428125,
2010-05-04, 03:02:05,VALID,914.828,VALID,0,VALID,97.534,VALID,0,VALID,21.1461,VALID,343,VALID,0.474219,
2010-05-04, 03:03:05,VALID,914.855,VALID,0,VALID,97.534,VALID,0,VALID,21.1445,VALID,343,VALID,0.242578,
2010-05-04, 03:04:05,VALID,914.862,VALID,0,VALID,97.5187,VALID,0,VALID,21.2047,VALID,343,VALID,0.00351562,
2010-05-04, 03:05:05,VALID,914.908,VALID,0,VALID,97.5111,VALID,0,VALID,21.2242,VALID,343,VALID,0.307031,
2010-05-04, 03:06:05,VALID,914.91,VALID,0,VALID,97.5264,VALID,0,VALID,21.2437,VALID,343,VALID,0.325781,
2010-05-04, 03:07:05,VALID,914.935,VALID,0,VALID,97.5264,VALID,0,VALID,21.2437,VALID,343,VALID,0.410156,
2010-05-04, 03:08:05,VALID,914.934,VALID,0,VALID,97.5111,VALID,0,VALID,21.2242,VALID,343,VALID,0.783203,
2010-05-04, 03:09:05,VALID,914.956,VALID,0,VALID,97.5264,VALID,0,VALID,21.2242,VALID,343,VALID,0.707812,
2010-05-04, 03:10:05,VALID,914.923,VALID,0,VALID,97.5264,VALID,0,VALID,21.2242,VALID,343,VALID,0.598828,
2010-05-04, 03:11:05,VALID,914.917,VALID,0,VALID,97.5187,VALID,0,VALID,21.2242,VALID,343,VALID,0.414453,
2010-05-04, 03:12:05,VALID,914.929,VALID,0,VALID,97.5187,VALID,0,VALID,21.2437,VALID,343,VALID,0.184766,
2010-05-04, 03:13:05,VALID,914.935,VALID,0,VALID,97.5187,VALID,0,VALID,21.2632,VALID,343,VALID,0.290234,
2010-05-04, 03:14:05,VALID,914.937,VALID,0,VALID,97.5264,VALID,0,VALID,21.2827,VALID,343,VALID,0.167578,
2010-05-04, 03:15:05,VALID,914.945,VALID,0,VALID,97.5187,VALID,0,VALID,21.3022,VALID,343,VALID,0.100781,
2010-05-04, 03:16:05,VALID,914.969,VALID,0,VALID,97.4959,VALID,0,VALID,21.3022,VALID,343,VALID,0.230859,
2010-05-04, 03:17:05,VALID,914.97,VALID,0,VALID,97.5035,VALID,0,VALID,21.3022,VALID,343,VALID,0.777344,
2010-05-04, 03:18:05,VALID,914.964,VALID,0,VALID,97.5111,VALID,0,VALID,21.3022,VALID,343,VALID,0.498828,
2010-05-04, 03:19:05,VALID,914.961,VALID,0,VALID,97.4959,VALID,0,VALID,21.2827,VALID,343,VALID,0.461719,
2010-05-04, 03:20:05,VALID,914.931,VALID,0,VALID,97.5264,VALID,0,VALID,21.2827,VALID,343,VALID,0.242578,
2010-05-04, 03:21:05,VALID,914.927,VALID,0,VALID,97.5111,VALID,0,VALID,21.2632,VALID,343,VALID,0,
2010-05-04, 03:22:05,VALID,914.905,VALID,0,VALID,97.5187,VALID,0,VALID,21.2827,VALID,343,VALID,0.663672,
2010-05-04, 03:23:05,VALID,914.89,VALID,0,VALID,97.5264,VALID,0,VALID,21.2827,VALID,343,VALID,0.532812,
2010-05-04, 03:24:05,VALID,914.909,VALID,0,VALID,97.5264,VALID,0,VALID,21.3022,VALID,343,VALID,0.655078,
2010-05-04, 03:25:05,VALID,914.905,VALID,0,VALID,97.4959,VALID,0,VALID,21.2811,VALID,343,VALID,0.333594,
2010-05-04, 03:26:05,VALID,914.878,VALID,0,VALID,97.4959,VALID,0,VALID,21.3022,VALID,343,VALID,0.000390625,
2010-05-04, 03:27:05,VALID,914.832,VALID,0,VALID,97.5111,VALID,0,VALID,21.3217,VALID,343,VALID,0.617969,
2010-05-04, 03:28:05,VALID,914.853,VALID,0,VALID,97.5187,VALID,0,VALID,21.3217,VALID,293,VALID,0.837109,
2010-05-04, 03:29:05,VALID,914.847,VALID,0,VALID,97.5111,VALID,0,VALID,21.3022,VALID,279,VALID,0.651172,
2010-05-04, 03:30:05,VALID,914.814,VALID,0,VALID,97.5187,VALID,0,VALID,21.3022,VALID,279,VALID,0.603516,
2010-05-04, 03:31:05,VALID,914.815,VALID,0,VALID,97.5111,VALID,0,VALID,21.3022,VALID,279,VALID,0.506641,
2010-05-04, 03:32:05,VALID,914.821,VALID,0,VALID,97.5416,VALID,0,VALID,21.3022,VALID,279,VALID,0.378906,
2010-05-04, 03:33:05,VALID,914.846,VALID,0,VALID,97.5111,VALID,0,VALID,21.3022,VALID,279,VALID,0.371875,
2010-05-04, 03:34:05,VALID,914.874,VALID,0,VALID,97.5264,VALID,0,VALID,21.2811,VALID,279,VALID,0.130859,
2010-05-04, 03:35:05,VALID,914.906,VALID,0,VALID,97.5111,VALID,0,VALID,21.2827,VALID,279,VALID,0.0558594,
2010-05-04, 03:36:05,VALID,914.885,VALID,0,VALID,97.5035,VALID,0,VALID,21.2827,VALID,279,VALID,0.0824219,
2010-05-04, 03:37:05,VALID,914.882,VALID,0,VALID,97.534,VALID,0,VALID,21.2827,VALID,279,VALID,0.303516,
2010-05-04, 03:38:05,VALID,914.888,VALID,0,VALID,97.5111,VALID,0,VALID,21.2616,VALID,279,VALID,0.458594,
2010-05-04, 03:39:05,VALID,914.858,VALID,0,VALID,97.5187,VALID,0,VALID,21.3022,VALID,279,VALID,0.290234,
2010-05-04, 03:40:05,VALID,914.82,VALID,0,VALID,97.5187,VALID,0,VALID,21.3022,VALID,279,VALID,0.667969,
2010-05-04, 03:41:05,VALID,914.809,VALID,0,VALID,97.5187,VALID,0,VALID,21.2827,VALID,279,VALID,0.635156,
2010-05-04, 03:42:05,VALID,914.766,VALID,0,VALID,97.5264,VALID,0,VALID,21.2616,VALID,279,VALID,0.744531,
2010-05-04, 03:43:05,VALID,914.769,VALID,0,VALID,97.5416,VALID,0,VALID,21.3022,VALID,279,VALID,0.379687,
2010-05-04, 03:44:05,VALID,914.765,VALID,0,VALID,97.534,VALID,0,VALID,21.3022,VALID,279,VALID,0.255078,
2010-05-04, 03:45:05,VALID,914.773,VALID,0,VALID,97.5264,VALID,0,VALID,21.2811,VALID,279,VALID,0.122266,
2010-05-04, 03:46:05,VALID,914.756,VALID,0,VALID,97.5187,VALID,0,VALID,21.3217,VALID,279,VALID,0.231641,
2010-05-04, 03:47:05,VALID,914.759,VALID,0,VALID,97.5111,VALID,0,VALID,21.3217,VALID,279,VALID,0.394531,